Tracking 35274 objects as of 12-Sep-2026
HD Live streaming from Space Station
objects crossing your sky now

STARLINK-30552

Track STARLINK-30552 now!
10-day predictions
STARLINK-30552 is classified as:


NORAD ID: 57999
Int'l Code: 2023-153J
Launch date: October 5, 2023
Source: United States (US)
Launch site: AIR FORCE EASTERN TEST RANGE (AFETR)
Your satellite tracking list
Your tracking list is empty




NASA's NSSDC Master Catalog

Two Line Element Set (TLE):
1 57999U 23153J   26254.92316534  .00000650  00000-0  33129-4 0  9998
2 57999  43.0013  95.7137 0001145 271.5191  88.5530 15.27577743163378
Source of the keplerian elements: AFSPC